Weather History for KFSM - February, 2013

Change the Weather History Date:

Thursday, February 28, 2013

  Actual Average Record
Temperature  
Mean Temperature 41 °F 48 °F  
Max Temperature 51 °F 60 °F 80 °F (2006)
Min Temperature 30 °F 37 °F 7 °F (1890)
Degree Days  
Heating Degree Days 24 17  
Month to date heating degree days 564 582  
Since 1 July heating degree days 2323 2673  
Moisture  
Dew Point 28 °F    
Average Humidity 63    
Maximum Humidity 85    
Minimum Humidity 41    
Precipitation  
Precipitation 0.00 in 0.10 in 1.35 in (1981)
Month to date precipitation 4.46 2.76  
Year to date precipitation 8.43 5.57  
Sea Level Pressure  
Sea Level Pressure 30.18 in    
Wind  
Wind Speed 11 mph (WNW)    
Max Wind Speed 21 mph    
Max Gust Speed 29 mph    
Visibility 10 miles    
Events      
T = Trace of Precipitation, MM = Missing Value Source: NWS Daily Summary

Daily Weather History Graph

Daily Weather History Graph

Search for Another Location

Airport or City:

Trip Planner

Search our weather history database for the weather conditions in past years. The results will help you decide how hot, cold, wet, or windy it might be!

Date:

Astronomy

Feb. 28, 2013 Rise Set
Actual Time 6:48 AM CST 6:12 PM CST
Civil Twilight 6:22 AM CST 6:37 PM CST
Nautical Twilight 5:53 AM CST 7:07 PM CST
Astronomical Twilight 5:23 AM CST 7:36 PM CST
Moon 9:30 PM CST (2/28) 8:06 AM CST (2/28)
Length of Visible Light 12h 15m
Length of Day
11h 24m
Waning Gibbous, 90% of the Moon is Illuminated
Feb 28
Waning Gibbous
Mar 4
Last Quarter
Mar 11
New
Mar 19
First Quarter
Mar 27
Full

Hourly Weather History & Observations

Time (CST) Temp. Windchill Dew Point Humidity Pressure Visibility Wind Dir Wind Speed Gust Speed Precip Events Conditions
12:53 AM 33.8 °F 27.0 °F 26.6 °F 75% 30.12 in 10.0 mi West 8.1 mph - N/A   Clear
1:53 AM 33.1 °F 25.5 °F 27.0 °F 78% 30.14 in 10.0 mi West 9.2 mph - N/A   Clear
2:53 AM 33.1 °F 24.9 °F 27.0 °F 78% 30.15 in 10.0 mi West 10.4 mph - N/A   Clear
3:53 AM 32.0 °F 24.8 °F 26.1 °F 79% 30.15 in 10.0 mi West 8.1 mph - N/A   Clear
4:53 AM 30.9 °F 22.2 °F 26.1 °F 82% 30.16 in 10.0 mi West 10.4 mph - N/A   Clear
5:53 AM 30.9 °F 22.8 °F 26.1 °F 82% 30.17 in 10.0 mi West 9.2 mph - N/A   Clear
6:53 AM 30.0 °F 22.4 °F 26.1 °F 85% 30.18 in 8.0 mi West 8.1 mph - N/A   Clear
7:53 AM 34.0 °F 25.5 °F 28.0 °F 79% 30.19 in 9.0 mi West 11.5 mph - N/A   Clear
8:53 AM 37.0 °F 29.3 °F 28.9 °F 73% 30.20 in 10.0 mi West 11.5 mph - N/A   Clear
9:53 AM 41.0 °F 33.1 °F 28.9 °F 62% 30.19 in 10.0 mi NW 15.0 mph 19.6 mph N/A   Clear
10:53 AM 43.0 °F 37.2 °F 28.9 °F 58% 30.19 in 10.0 mi NW 10.4 mph - N/A   Clear
11:53 AM 46.0 °F 39.6 °F 30.0 °F 54% 30.19 in 10.0 mi West 15.0 mph 20.7 mph N/A   Partly Cloudy
12:53 PM 48.0 °F - 28.9 °F 48% 30.17 in 10.0 mi WNW 17.3 mph 28.8 mph N/A   Clear
1:53 PM 48.9 °F - 28.9 °F 46% 30.16 in 10.0 mi WNW 16.1 mph 23.0 mph N/A   Clear
2:53 PM 51.8 °F - 28.4 °F 41% 30.14 in 10.0 mi NNW 13.8 mph - N/A   Partly Cloudy
3:53 PM 50.0 °F - 28.0 °F 43% 30.15 in 10.0 mi NW 11.5 mph - N/A   Clear
4:53 PM 46.9 °F - 28.9 °F 50% 30.16 in 10.0 mi NNW 15.0 mph 21.9 mph N/A   Clear
5:53 PM 43.0 °F 35.7 °F 28.0 °F 56% 30.18 in 10.0 mi NNW 15.0 mph - N/A   Clear
6:53 PM 39.9 °F 32.5 °F 28.0 °F 63% 30.19 in 10.0 mi North 12.7 mph - N/A   Scattered Clouds
7:53 PM 39.0 °F 31.8 °F 27.0 °F 62% 30.20 in 10.0 mi North 11.5 mph - N/A   Clear
8:53 PM 37.9 °F 32.1 °F 26.1 °F 62% 30.20 in 10.0 mi North 8.1 mph - N/A   Clear
9:53 PM 36.0 °F 31.1 °F 26.1 °F 67% 30.21 in 10.0 mi NW 5.8 mph - N/A   Clear
10:53 PM 37.9 °F 32.7 °F 26.1 °F 62% 30.21 in 10.0 mi NW 6.9 mph - N/A   Overcast
11:53 PM 37.4 °F 30.8 °F 24.8 °F 60% 30.20 in 10.0 mi NNW 9.2 mph - N/A   Overcast